Temp
-14 -14 -14 -14 -13 -14 -14 -14 -14 -13 -13 -13 -13 -13 -13 -13 -13 -12 -12 -12 -12 -13 -13 -12 -13 -13 -13 -13 -13 -13 -13 -13 -13 -13 -13 -13 -13 -13 -13 -13 -13 -13
-14 -14 -14 -13 -13 -13 -13 -14 -14 -13 -13 -13 -13 -13 -13 -13 -13 -13 -12 -12 -12 -13 -13 -13 -13 -13 -13 -13 -13 -13 -13 -13 -13 -13 -13 -13 -13 -13 -13 -13 -13 -13
-14 -13 -13 -13 -13 -13 -13 -13 -13 -13 -13 -13 -13 -13 -13 -13 -13 -13 -12 -12 -13 -13 -13 -13 -13 -13 -13 -13 -13 -13 -13 -13 -13 -13 -13 -13 -13 -13 -13 -13 -14 -14
-13 -13 -13 -13 -13 -12 -13 -13 -13 -13 -13 -13 -13 -13 -13 -13 -13 -13 -12 -12 -13 -13 -13 -13 -13 -13 -13 -13 -13 -13 -13 -13 -13 -14 -14 -14 -13 -14 -14 -14 -14 -14
-13 -13 -13 -13 -12 -13 -13 -13 -13 -13 -13 -13 -13 -13 -13 -12 -13 -13 -13 -13 -13 -13 -13 -13 -13 -13 -13 -13 -13 -14 -14 -13 -14 -14 -14 -14 -14 -14 -14 -14 -14 -14
-14 -14 -13 -13 -13 -14 -14 -13 -13 -13 -13 -13 -13 -13 -13 -13 -13 -13 -13 -13 -13 -13 -13 -13 -13 -13 -13 -14 -13 -13 -13 -14 -14 -14 -14 -14 -14 -14 -14 -14 -14 -14
-14 -14 -14 -14 -14 -14 -14 -14 -14 -14 -14 -14 -13 -13 -13 -13 -13 -13 -13 -13 -13 -13 -13 -13 -13 -13 -13 -14 -13 -13 -14 -14 -14 -14 -14 -14 -14 -14 -14 -14 -14 -14
-15 -15 -14 -14 -14 -15 -14 -14 -15 -14 -14 -14 -14 -13 -13 -13 -13 -13 -13 -13 -13 -13 -13 -13 -13 -13 -13 -13 -13 -13 -14 -14 -14 -14 -14 -14 -14 -14 -14 -14 -14 -14
-15 -15 -15 -15 -15 -15 -15 -15 -15 -15 -15 -14 -14 -14 -13 -13 -13 -13 -13 -13 -14 -14 -13 -13 -13 -13 -14 -13 -13 -14 -14 -14 -14 -14 -14 -14 -14 -14 -14 -14 -14 -14
-16 -15 -15 -15 -15 -15 -15 -15 -15 -15 -15 -15 -14 -14 -14 -14 -14 -13 -13 -14 -14 -14 -14 -14 -14 -14 -14 -14 -14 -14 -14 -14 -14 -14 -14 -14 -14 -14 -14 -14 -14 -14
-16 -16 -15 -15 -15 -15 -15 -15 -15 -15 -15 -15 -15 -15 -15 -14 -14 -14 -14 -14 -14 -14 -14 -14 -14 -14 -14 -14 -14 -14 -14 -14 -14 -14 -14 -14 -14 -14 -14 -14 -14 -14
-16 -16 -16 -16 -16 -16 -15 -15 -15 -15 -15 -14 -14 -15 -15 -14 -14 -14 -14 -14 -14 -14 -14 -14 -14 -14 -14 -14 -14 -14 -14 -14 -14 -14 -14 -14 -14 -15 -15 -15 -15 -14
-16 -16 -16 -16 -16 -16 -15 -15 -15 -15 -15 -14 -14 -14 -15 -14 -14 -14 -14 -14 -14 -14 -14 -14 -14 -14 -14 -14 -14 -14 -14 -14 -14 -14 -15 -14 -14 -15 -15 -15 -15 -15
-16 -16 -16 -16 -16 -16 -15 -15 -15 -15 -15 -14 -14 -14 -14 -14 -14 -14 -14 -14 -14 -14 -14 -14 -14 -14 -14 -14 -14 -14 -14 -14 -14 -14 -15 -14 -14 -15 -15 -15 -15 -15
-16 -16 -16 -16 -16 -16 -15 -15 -15 -15 -14 -14 -14 -14 -14 -14 -14 -14 -14 -14 -14 -14 -14 -14 -14 -14 -14 -14 -14 -14 -14 -14 -14 -14 -14 -14 -15 -15 -15 -15 -15 -15
-16 -16 -16 -16 -16 -15 -15 -15 -15 -15 -14 -14 -14 -15 -15 -15 -14 -14 -14 -14 -14 -14 -14 -14 -14 -14 -14 -14 -14 -14 -14 -14 -14 -14 -14 -14 -15 -15 -15 -15 -15 -15
-15 -15 -16 -16 -15 -15 -15 -15 -15 -15 -15 -15 -15 -15 -15 -15 -14 -14 -14 -14 -14 -14 -14 -14 -14 -14 -14 -14 -14 -14 -14 -14 -15 -15 -15 -15 -15 -15 -15 -15 -15 -15
-15 -15 -15 -15 -15 -15 -15 -15 -15 -15 -15 -15 -15 -15 -15 -15 -15 -15 -15 -15 -15 -14 -14 -14 -14 -14 -14 -14 -14 -14 -14 -15 -15 -15 -15 -15 -15 -15 -15 -15 -15 -15
-16 -15 -15 -15 -15 -15 -15 -15 -15 -15 -15 -15 -15 -15 -15 -15 -15 -15 -15 -15 -15 -15 -14 -14 -15 -15 -14 -14 -14 -14 -15 -15 -15 -15 -15 -15 -15 -15 -15 -15 -15 -15
-16 -16 -16 -16 -16 -15 -15 -15 -15 -15 -15 -15 -15 -15 -15 -15 -15 -15 -15 -15 -15 -15 -15 -15 -15 -15 -15 -15 -15 -15 -15 -15 -15 -15 -15 -15 -15 -15 -15 -16 -16 -16
-16 -16 -16 -16 -16 -16 -16 -15 -15 -15 -15 -15 -15 -15 -15 -15 -15 -15 -15 -15 -15 -15 -15 -15 -15 -15 -15 -15 -15 -15 -15 -15 -15 -15 -15 -15 -15 -16 -16 -16 -16 -16
-16 -16 -16 -16 -16 -16 -16 -16 -15 -15 -15 -15 -15 -15 -15 -15 -15 -15 -15 -15 -15 -15 -15 -15 -15 -15 -15 -15 -15 -15 -15 -15 -15 -15 -15 -15 -16 -16 -16 -16 -16 -16
-16 -16 -16 -16 -16 -16 -16 -16 -15 -15 -15 -15 -15 -15 -15 -15 -15 -15 -15 -15 -15 -15 -15 -15 -15 -16 -16 -15 -16 -16 -16 -16 -16 -15 -15 -16 -16 -16 -16 -16 -16 -16
-16 -16 -16 -16 -16 -16 -16 -16 -16 -15 -15 -15 -15 -15 -15 -15 -15 -15 -15 -15 -15 -15 -15 -15 -15 -16 -16 -16 -16 -16 -16 -16 -16 -16 -16 -16 -16 -17 -17 -16 -16 -16
-16 -16 -16 -16 -16 -16 -16 -16 -16 -16 -15 -15 -15 -15 -15 -15 -15 -15 -15 -15 -15 -15 -15 -15 -15 -16 -16 -15 -16 -16 -16 -16 -16 -16 -16 -16 -16 -17 -17 -17 -17 -16
-16 -16 -16 -16 -16 -16 -16 -16 -16 -16 -15 -15 -15 -15 -15 -15 -15 -15 -15 -15 -15 -15 -15 -15 -15 -15 -15 -15 -15 -16 -16 -16 -16 -16 -16 -16 -16 -17 -17 -17 -17 -17
Height
5758 5759 5759 5759 5759 5760 5761 5762 5763 5763 5763 5764 5764 5764 5763 5764 5766 5767 5768 5768 5769 5770 5772 5774 5776 5778 5780 5782 5783 5784 5785 5787 5788 5789 5790 5791 5793 5794 5795 5796 5797 5799
5754 5754 5755 5754 5755 5756 5757 5759 5760 5760 5759 5760 5762 5761 5761 5761 5762 5763 5764 5765 5767 5768 5769 5771 5773 5775 5776 5778 5780 5780 5782 5784 5785 5787 5788 5789 5790 5791 5792 5794 5795 5796
5750 5750 5750 5750 5750 5750 5752 5755 5757 5756 5756 5757 5758 5758 5759 5759 5759 5760 5761 5762 5763 5765 5767 5768 5770 5772 5773 5775 5777 5778 5780 5781 5782 5784 5786 5787 5788 5789 5790 5791 5792 5793
5745 5745 5745 5745 5745 5744 5746 5749 5752 5753 5753 5754 5754 5755 5756 5756 5756 5757 5758 5759 5760 5762 5764 5766 5768 5769 5771 5772 5774 5776 5778 5779 5780 5782 5784 5785 5786 5787 5788 5789 5790 5791
5741 5741 5742 5741 5740 5739 5741 5744 5746 5748 5750 5751 5751 5752 5752 5752 5752 5753 5755 5757 5758 5759 5761 5763 5765 5766 5768 5770 5771 5773 5775 5777 5778 5780 5781 5782 5784 5785 5786 5787 5788 5789
5737 5737 5737 5737 5736 5736 5738 5741 5742 5744 5746 5747 5747 5748 5749 5749 5749 5751 5752 5754 5755 5757 5759 5760 5761 5763 5765 5766 5768 5770 5772 5774 5776 5777 5778 5779 5781 5782 5783 5784 5786 5787
5734 5733 5733 5733 5733 5734 5736 5738 5739 5741 5743 5743 5744 5746 5746 5746 5746 5748 5749 5751 5753 5755 5756 5758 5759 5760 5761 5763 5766 5768 5770 5771 5773 5774 5775 5776 5778 5780 5781 5782 5783 5784
5731 5730 5730 5729 5730 5732 5734 5735 5735 5737 5739 5740 5742 5743 5743 5743 5743 5744 5746 5748 5750 5752 5753 5755 5756 5757 5758 5761 5764 5765 5766 5768 5770 5771 5772 5773 5775 5776 5777 5779 5780 5781
5730 5729 5728 5727 5728 5729 5731 5732 5732 5733 5735 5736 5739 5741 5742 5741 5741 5742 5743 5745 5747 5749 5750 5752 5753 5755 5756 5758 5760 5762 5763 5765 5767 5768 5769 5770 5771 5772 5774 5775 5777 5778
5728 5727 5726 5726 5726 5727 5728 5729 5730 5731 5732 5734 5736 5737 5738 5739 5739 5739 5740 5742 5744 5746 5747 5749 5750 5752 5754 5756 5758 5759 5761 5763 5764 5765 5766 5768 5769 5770 5771 5773 5774 5775
5726 5725 5725 5725 5725 5726 5726 5727 5728 5730 5731 5732 5733 5733 5734 5735 5736 5737 5737 5739 5741 5743 5744 5746 5747 5749 5751 5753 5755 5757 5758 5760 5760 5761 5763 5765 5767 5768 5769 5771 5772 5773
5724 5724 5723 5723 5724 5724 5724 5725 5725 5726 5727 5728 5729 5730 5731 5732 5733 5734 5735 5736 5738 5740 5741 5743 5745 5746 5748 5750 5752 5754 5755 5757 5758 5759 5760 5762 5764 5765 5767 5768 5769 5770
5722 5722 5722 5721 5721 5722 5722 5723 5723 5723 5723 5723 5725 5726 5727 5728 5730 5731 5733 5733 5734 5736 5737 5739 5741 5743 5744 5746 5748 5750 5752 5754 5755 5756 5757 5759 5760 5762 5763 5764 5765 5767
5719 5719 5720 5720 5719 5719 5720 5720 5720 5720 5719 5720 5721 5722 5723 5725 5727 5728 5729 5730 5731 5732 5733 5735 5738 5739 5741 5742 5744 5747 5749 5751 5752 5753 5754 5756 5757 5758 5759 5760 5762 5763
5717 5716 5717 5717 5717 5717 5717 5717 5717 5718 5717 5717 5718 5718 5719 5721 5723 5724 5726 5727 5728 5729 5730 5732 5734 5736 5737 5739 5741 5743 5745 5747 5748 5750 5751 5752 5754 5755 5756 5756 5757 5758
5714 5714 5714 5714 5714 5714 5714 5714 5714 5715 5714 5714 5715 5715 5716 5718 5720 5721 5722 5723 5724 5726 5728 5730 5731 5732 5733 5736 5738 5740 5742 5743 5745 5746 5748 5749 5750 5751 5752 5752 5753 5754
5712 5711 5711 5711 5711 5712 5711 5711 5711 5712 5712 5712 5712 5713 5715 5716 5717 5718 5719 5721 5722 5724 5725 5727 5729 5730 5731 5733 5735 5737 5738 5740 5742 5743 5744 5745 5746 5747 5748 5749 5750 5750
5708 5708 5707 5708 5708 5708 5709 5709 5709 5710 5710 5710 5710 5712 5713 5713 5714 5715 5717 5718 5720 5722 5724 5725 5726 5727 5729 5730 5732 5734 5735 5737 5738 5739 5741 5742 5743 5743 5744 5745 5746 5747
5705 5705 5704 5704 5705 5705 5706 5706 5707 5707 5707 5707 5708 5709 5711 5711 5712 5713 5715 5716 5717 5719 5721 5722 5723 5724 5726 5728 5729 5730 5732 5733 5734 5736 5737 5738 5739 5740 5741 5742 5743 5744
5701 5701 5701 5700 5701 5702 5702 5703 5703 5703 5703 5704 5704 5706 5707 5708 5709 5710 5712 5713 5714 5715 5717 5718 5720 5721 5723 5724 5725 5727 5728 5729 5730 5732 5733 5735 5736 5737 5738 5739 5739 5740
5698 5697 5697 5697 5697 5698 5699 5700 5700 5699 5700 5700 5701 5701 5703 5704 5705 5706 5708 5709 5710 5712 5713 5715 5716 5718 5719 5720 5721 5723 5724 5725 5726 5728 5729 5730 5732 5733 5734 5735 5735 5736
5696 5694 5693 5693 5693 5694 5695 5696 5696 5696 5696 5696 5697 5698 5699 5700 5701 5703 5703 5705 5706 5708 5709 5711 5712 5714 5715 5716 5718 5719 5720 5721 5722 5724 5725 5726 5727 5728 5729 5730 5731 5732
5694 5692 5690 5689 5689 5690 5691 5692 5693 5692 5692 5692 5693 5694 5695 5696 5698 5699 5699 5700 5702 5703 5705 5706 5708 5709 5711 5712 5714 5716 5717 5718 5719 5720 5721 5722 5723 5724 5725 5726 5727 5727
5690 5690 5688 5686 5685 5685 5686 5687 5689 5689 5688 5688 5688 5689 5690 5692 5693 5694 5695 5696 5697 5699 5700 5702 5703 5705 5706 5708 5710 5712 5713 5714 5715 5716 5717 5718 5719 5720 5721 5722 5722 5723
5686 5686 5686 5684 5682 5681 5682 5683 5684 5684 5684 5684 5684 5684 5685 5687 5688 5689 5691 5692 5693 5695 5696 5697 5698 5700 5701 5703 5705 5707 5709 5710 5711 5711 5712 5713 5715 5716 5717 5718 5718 5719
5681 5681 5682 5681 5680 5678 5678 5678 5679 5679 5679 5680 5680 5680 5681 5682 5683 5684 5686 5687 5688 5690 5691 5692 5693 5695 5697 5699 5700 5702 5704 5705 5706 5707 5708 5709 5710 5712 5713 5713 5714 5715
Wind_Speed
30 27 26 28 29 30 30 31 30 29 28 26 23 21 22 24 25 26 26 24 22 25 28 30 30 28 27 28 29 30 29 28 29 29 28 28 27 25 25 24 23 23
30 28 26 27 30 31 31 30 29 29 30 28 24 22 23 23 24 26 27 26 25 27 29 31 31 29 28 29 31 32 31 28 29 30 29 29 27 26 26 24 24 24
30 29 29 28 30 33 35 33 31 32 32 30 27 24 24 24 25 27 29 29 28 28 29 31 31 30 30 31 32 33 32 30 29 29 29 29 27 27 26 25 25 24
28 29 28 27 27 29 31 32 32 33 32 31 29 26 25 25 26 28 29 30 28 27 29 30 29 30 32 32 32 32 32 30 28 27 28 28 27 26 26 27 26 24
26 26 25 24 23 23 26 29 31 32 31 31 31 28 26 26 27 27 28 28 27 27 28 29 28 29 32 32 32 31 30 29 27 27 28 28 27 26 26 26 25 24
21 22 21 20 21 23 26 27 29 30 30 31 32 30 27 26 25 26 27 29 28 28 29 29 28 29 31 32 31 29 29 28 26 27 28 27 27 26 25 25 25 23
17 18 16 15 17 22 27 27 27 27 29 32 32 31 29 26 25 26 27 28 29 29 29 31 31 31 31 31 30 28 28 28 27 27 28 27 26 25 25 25 24 24
15 14 12 12 15 20 25 27 26 24 26 29 30 30 29 26 26 27 27 26 29 31 30 31 32 32 31 30 29 28 28 29 29 28 27 27 26 26 25 25 25 25
16 13 11 12 16 20 22 25 25 24 23 25 27 29 29 27 26 28 28 27 28 30 30 31 32 31 29 29 29 29 29 29 29 28 28 28 27 27 26 25 25 25
17 14 12 12 17 21 22 22 24 23 23 23 25 27 27 27 27 28 29 28 27 28 29 30 31 31 29 29 30 29 29 29 29 28 28 28 27 27 26 26 26 26
15 15 14 13 15 20 23 22 23 23 23 22 24 26 26 26 27 28 29 29 28 28 28 29 31 31 30 29 30 30 30 31 30 28 28 28 29 28 28 27 27 27
16 15 15 14 15 17 21 21 21 22 24 24 25 26 27 27 28 28 29 30 29 28 28 29 30 31 31 30 30 30 31 31 31 30 31 31 30 29 28 28 28 28
19 17 16 16 16 17 18 18 18 18 22 25 27 27 28 29 28 28 29 30 30 29 29 30 30 31 32 31 29 29 30 31 31 32 32 32 30 29 29 28 28 28
22 21 18 17 17 18 19 19 18 17 18 22 25 27 29 29 29 28 28 29 30 30 31 32 32 32 32 31 29 28 29 30 31 32 32 31 30 29 29 29 28 29
24 24 22 20 18 19 20 20 20 19 19 20 23 26 29 29 29 29 27 28 29 30 32 33 32 31 32 31 30 29 30 32 32 32 32 31 30 30 29 29 29 30
24 25 25 23 21 20 20 20 20 19 19 20 21 25 27 27 28 28 27 27 29 29 30 31 31 30 32 32 32 32 33 33 33 32 32 31 31 30 30 30 30 29
23 25 25 25 24 22 21 21 20 18 18 18 18 21 24 25 27 27 26 26 27 26 27 28 30 31 32 33 33 34 34 34 33 33 33 32 31 31 30 30 29 29
23 24 26 26 25 24 23 23 22 20 18 18 17 19 22 24 26 26 26 26 26 26 26 28 30 32 33 34 34 35 35 34 34 34 33 31 30 30 30 30 29 29
25 25 27 27 27 26 25 24 23 22 22 23 22 21 22 23 24 26 27 28 29 29 30 31 33 34 33 33 34 34 35 35 35 34 32 31 31 31 30 30 31 31
26 26 27 29 28 28 27 25 24 25 25 26 26 26 25 24 24 26 28 30 31 31 33 34 35 35 34 33 34 34 34 35 36 34 33 32 31 31 30 30 31 31
27 27 27 28 28 28 27 26 25 26 26 26 27 29 28 26 26 28 29 30 32 32 33 35 36 35 33 33 33 34 35 36 36 35 34 32 31 30 30 30 30 31
26 27 28 29 29 28 26 26 26 27 28 27 28 29 29 28 28 29 30 31 33 33 34 37 39 37 33 32 33 34 36 37 37 36 34 32 30 29 29 30 30 30
25 26 28 30 30 29 27 25 26 28 29 29 29 30 31 30 30 30 31 32 35 36 36 39 41 40 35 33 32 34 36 37 37 37 34 32 30 29 30 30 30 30
25 25 27 29 31 31 29 27 26 27 29 30 31 31 32 32 33 32 32 32 35 37 38 40 42 42 39 36 33 33 35 36 36 35 33 31 30 30 31 31 31 31
28 26 26 27 30 31 31 29 27 27 29 31 32 32 32 33 34 34 33 33 34 37 39 41 43 45 44 39 35 34 35 35 35 33 31 31 31 32 33 33 33 32
30 29 27 27 28 30 31 30 28 28 29 31 32 33 33 34 36 36 34 33 34 37 41 43 44 47 47 40 35 35 35 34 34 33 31 31 31 32 34 35 34 33
Wind_Direction
282 280 273 265 264 263 259 257 254 250 249 249 249 249 251 250 245 243 247 245 234 227 226 226 226 225 223 223 225 227 229 231 234 233 232 233 232 233 236 238 239 239
280 282 281 271 265 263 258 254 252 248 247 248 249 249 250 248 242 240 241 236 227 226 228 227 224 221 221 223 224 225 225 224 229 232 232 232 231 232 235 237 239 239
275 279 284 278 270 263 256 250 249 248 248 249 248 249 248 245 241 239 236 232 227 226 226 225 222 220 220 223 225 227 226 224 227 231 232 232 231 232 233 233 234 236
276 277 281 279 272 263 251 245 246 246 246 248 246 245 246 243 241 241 237 232 228 225 224 223 222 223 224 224 226 228 230 229 229 230 233 233 232 232 234 235 235 234
280 278 279 276 267 251 238 239 246 246 245 248 246 242 242 240 240 241 239 235 230 226 226 225 223 225 228 227 227 228 229 230 229 230 232 233 232 232 234 237 238 236
284 276 273 270 258 235 225 235 247 247 246 248 245 241 239 238 238 239 236 234 232 228 227 226 224 225 228 229 227 225 226 227 227 229 231 232 232 232 234 236 237 237
293 279 266 259 248 232 227 233 241 244 247 248 243 237 236 236 234 232 232 232 231 228 227 228 228 228 228 228 227 224 224 225 225 227 229 231 233 233 234 235 237 238
305 293 270 246 237 233 233 235 236 239 245 246 240 235 235 235 232 230 232 232 230 226 226 229 230 229 228 226 226 224 224 224 225 225 227 230 231 232 234 235 236 238
307 305 288 256 237 232 235 239 237 238 242 241 236 236 239 239 236 233 232 230 228 227 228 230 230 228 227 227 226 224 224 226 227 227 229 230 231 231 234 237 239 241
302 306 303 279 248 234 235 240 241 245 249 244 238 240 244 243 241 237 232 229 229 231 231 230 228 225 224 227 228 226 226 226 226 228 230 231 233 234 236 239 241 242
294 297 298 290 263 243 239 242 247 252 254 250 246 246 246 244 240 238 234 230 230 232 233 229 226 224 224 227 229 228 227 226 225 228 231 232 234 236 238 240 241 242
284 283 282 281 270 256 251 253 258 258 254 250 248 247 244 240 237 237 236 233 231 232 235 234 229 227 227 228 230 231 231 229 227 229 232 233 235 236 238 240 242 243
278 274 271 271 269 267 266 268 272 269 258 249 245 244 242 238 234 235 235 235 232 229 233 237 234 231 230 228 230 234 235 233 231 231 232 234 236 238 241 243 245 247
275 272 269 268 268 269 270 271 275 276 267 255 246 242 240 237 233 233 235 237 235 231 231 233 235 235 231 226 228 233 235 234 233 233 234 236 238 241 244 246 248 249
273 272 270 267 265 267 270 271 273 276 274 267 252 239 235 234 233 233 236 238 236 233 230 229 231 231 227 223 225 229 231 232 233 235 236 238 241 243 245 247 249 249
270 271 271 269 266 265 267 269 271 273 276 274 258 238 230 231 232 233 238 238 233 230 227 225 225 224 221 220 223 226 229 232 234 236 238 239 240 242 243 245 247 248
270 270 271 270 268 266 265 266 269 270 272 273 260 237 228 230 232 234 238 238 232 227 225 226 226 225 222 222 224 228 231 234 235 237 237 238 239 240 242 243 244 245
273 271 271 271 269 268 265 265 266 267 266 264 255 240 233 233 233 234 236 237 234 232 232 234 233 229 226 226 228 231 234 236 238 238 237 237 238 239 241 242 242 244
277 274 273 273 271 269 268 267 266 265 262 259 254 247 242 241 240 238 237 238 238 236 237 240 237 231 229 230 232 235 238 239 240 239 237 236 236 238 240 241 243 246
280 276 273 273 273 271 270 269 268 265 261 260 258 255 249 245 245 245 242 240 240 239 239 240 236 231 230 232 234 236 240 241 241 239 237 236 236 238 240 242 245 249
281 280 276 274 273 273 272 271 268 266 263 260 258 257 253 246 243 246 245 241 239 238 238 237 234 232 233 234 234 237 240 240 240 238 236 236 237 238 241 245 249 251
278 281 281 278 275 274 274 272 268 267 265 261 257 256 253 248 244 246 247 243 239 238 237 235 232 233 236 236 235 236 238 239 240 239 236 234 235 239 243 247 250 252
273 277 280 281 279 277 275 273 268 266 266 264 261 257 252 247 244 245 246 245 240 238 237 234 232 234 238 240 239 239 239 240 241 239 236 234 236 240 245 249 250 251
269 272 276 279 279 278 277 276 272 268 265 264 263 259 253 247 244 244 245 244 239 237 236 233 232 235 241 244 244 243 243 243 243 241 238 237 239 241 245 248 250 250
268 268 270 274 276 277 278 278 275 272 269 266 264 260 254 249 245 244 244 242 238 236 237 236 234 236 241 245 246 244 244 244 245 244 242 240 241 242 244 246 249 250
269 267 267 268 271 273 275 276 275 273 270 268 265 259 252 248 246 245 244 243 240 237 237 237 237 237 238 241 243 241 241 244 246 246 245 244 242 241 241 243 245 248